Time,TemperatureF,DewpointF,PressureIn,WindDirection,WindDirectionDegrees,WindSpeedMPH,WindSpeedGustMPH,Humidity,HourlyPrecipIn,Conditions,Clouds,dailyrainin,SoftwareType,DateUTC
2014-12-20 00:02:00,27.5,21.8,30.24,WSW,244,0.0,2.0,79,0.00,,,0.00,Wunderground v.1.15,2014-12-20 05:02:00,
2014-12-20 00:08:00,27.3,21.6,30.24,WSW,244,0.0,2.0,79,0.00,,,0.00,Wunderground v.1.15,2014-12-20 05:08:00,
2014-12-20 00:14:00,27.3,21.9,30.24,WSW,244,0.0,2.0,80,0.00,,,0.00,Wunderground v.1.15,2014-12-20 05:14:00,
2014-12-20 00:20:00,27.3,21.9,30.24,WSW,244,0.0,2.0,80,0.00,,,0.00,Wunderground v.1.15,2014-12-20 05:20:00,
2014-12-20 00:26:00,27.2,22.1,30.23,WSW,244,0.0,2.0,81,0.00,,,0.00,Wunderground v.1.15,2014-12-20 05:26:00,
2014-12-20 00:32:00,27.2,22.1,30.23,WSW,244,0.0,0.0,81,0.00,,,0.00,Wunderground v.1.15,2014-12-20 05:32:00,
2014-12-20 00:38:00,27.2,22.1,30.23,WSW,244,0.0,0.0,81,0.00,,,0.00,Wunderground v.1.15,2014-12-20 05:38:00,
2014-12-20 00:44:00,27.3,22.2,30.23,WSW,244,0.0,0.0,81,0.00,,,0.00,Wunderground v.1.15,2014-12-20 05:44:00,
2014-12-20 00:50:00,27.3,22.2,30.23,WSW,244,0.0,0.0,81,0.00,,,0.00,Wunderground v.1.15,2014-12-20 05:50:00,
2014-12-20 00:56:00,27.3,22.5,30.23,WSW,244,0.0,0.0,82,0.00,,,0.00,Wunderground v.1.15,2014-12-20 05:56:00,
2014-12-20 01:02:00,27.3,22.5,30.23,WSW,244,0.0,0.0,82,0.00,,,0.00,Wunderground v.1.15,2014-12-20 06:02:00,
2014-12-20 01:08:00,27.3,22.5,30.23,WSW,244,0.0,0.0,82,0.00,,,0.00,Wunderground v.1.15,2014-12-20 06:08:00,
2014-12-20 01:14:00,27.5,22.7,30.23,WSW,244,0.0,0.0,82,0.00,,,0.00,Wunderground v.1.15,2014-12-20 06:14:00,
2014-12-20 01:20:00,27.5,23.0,30.23,WSW,244,0.0,0.0,83,0.00,,,0.00,Wunderground v.1.15,2014-12-20 06:20:00,
2014-12-20 01:26:00,27.6,23.1,30.23,WSW,244,0.0,0.0,83,0.00,,,0.00,Wunderground v.1.15,2014-12-20 06:26:00,
2014-12-20 01:32:00,27.8,23.3,30.23,WSW,244,0.0,0.0,83,0.00,,,0.00,Wunderground v.1.15,2014-12-20 06:32:00,
2014-12-20 01:38:00,28.1,23.3,30.23,WSW,244,0.0,0.0,82,0.00,,,0.00,Wunderground v.1.15,2014-12-20 06:38:00,
2014-12-20 01:44:00,28.4,23.6,30.23,WSW,244,0.0,2.0,82,0.00,,,0.00,Wunderground v.1.15,2014-12-20 06:44:00,
2014-12-20 01:50:00,28.5,23.4,30.23,WSW,244,0.0,2.0,81,0.00,,,0.00,Wunderground v.1.15,2014-12-20 06:50:00,
2014-12-20 01:56:00,28.5,23.1,30.23,WSW,244,0.0,0.0,80,0.00,,,0.00,Wunderground v.1.15,2014-12-20 06:56:00,
2014-12-20 02:02:00,28.7,23.3,30.23,WSW,244,0.0,0.0,80,0.00,,,0.00,Wunderground v.1.15,2014-12-20 07:02:00,
2014-12-20 02:08:00,28.8,23.4,30.23,WSW,244,0.0,1.0,80,0.00,,,0.00,Wunderground v.1.15,2014-12-20 07:08:00,
2014-12-20 02:14:00,28.8,23.4,30.23,WSW,244,0.0,0.0,80,0.00,,,0.00,Wunderground v.1.15,2014-12-20 07:14:00,
2014-12-20 02:20:00,28.8,23.4,30.23,WSW,244,0.0,0.0,80,0.00,,,0.00,Wunderground v.1.15,2014-12-20 07:20:00,
2014-12-20 02:26:00,28.8,23.4,30.25,WSW,244,0.0,0.0,80,0.00,,,0.00,Wunderground v.1.15,2014-12-20 07:26:00,
2014-12-20 02:32:00,28.8,23.7,30.25,WSW,244,0.0,3.0,81,0.00,,,0.00,Wunderground v.1.15,2014-12-20 07:32:00,
2014-12-20 02:38:00,28.7,23.6,30.25,WSW,244,0.0,3.0,81,0.00,,,0.00,Wunderground v.1.15,2014-12-20 07:38:00,
2014-12-20 02:44:00,28.7,23.6,30.25,WSW,244,0.0,3.0,81,0.00,,,0.00,Wunderground v.1.15,2014-12-20 07:44:00,
2014-12-20 02:50:00,28.7,23.9,30.25,WSW,244,0.0,3.0,82,0.00,,,0.00,Wunderground v.1.15,2014-12-20 07:50:00,
2014-12-20 02:56:00,28.7,23.9,30.25,WSW,244,0.0,3.0,82,0.00,,,0.00,Wunderground v.1.15,2014-12-20 07:56:00,
2014-12-20 03:02:00,28.7,23.9,30.25,WSW,244,0.0,3.0,82,0.00,,,0.00,Wunderground v.1.15,2014-12-20 08:02:00,
2014-12-20 03:08:00,28.5,24.0,30.26,WSW,244,0.0,3.0,83,0.00,,,0.00,Wunderground v.1.15,2014-12-20 08:08:00,
2014-12-20 03:14:00,28.5,24.0,30.26,WSW,244,0.0,3.0,83,0.00,,,0.00,Wunderground v.1.15,2014-12-20 08:14:00,
2014-12-20 03:20:00,28.5,24.0,30.26,WSW,244,0.0,3.0,83,0.00,,,0.00,Wunderground v.1.15,2014-12-20 08:20:00,
2014-12-20 03:26:00,28.5,24.0,30.26,WSW,244,0.0,3.0,83,0.00,,,0.00,Wunderground v.1.15,2014-12-20 08:26:00,
2014-12-20 03:32:00,28.5,24.3,30.26,WSW,244,0.0,2.0,84,0.00,,,0.00,Wunderground v.1.15,2014-12-20 08:32:00,
2014-12-20 03:38:00,28.5,24.3,30.26,WSW,244,0.0,2.0,84,0.00,,,0.00,Wunderground v.1.15,2014-12-20 08:38:00,
2014-12-20 03:44:00,28.5,24.3,30.26,WSW,244,0.0,2.0,84,0.00,,,0.00,Wunderground v.1.15,2014-12-20 08:44:00,
2014-12-20 03:50:00,28.5,24.3,30.26,WSW,244,0.0,2.0,84,0.00,,,0.00,Wunderground v.1.15,2014-12-20 08:50:00,
2014-12-20 03:56:00,28.5,24.3,30.25,WSW,244,0.0,2.0,84,0.00,,,0.00,Wunderground v.1.15,2014-12-20 08:56:00,
2014-12-20 04:02:00,28.5,24.6,30.25,WSW,244,0.0,2.0,85,0.00,,,0.00,Wunderground v.1.15,2014-12-20 09:02:00,
2014-12-20 04:08:00,28.5,24.6,30.25,WSW,244,0.0,2.0,85,0.00,,,0.00,Wunderground v.1.15,2014-12-20 09:08:00,
2014-12-20 04:14:00,28.4,24.5,30.25,WSW,244,0.0,2.0,85,0.00,,,0.00,Wunderground v.1.15,2014-12-20 09:14:00,
2014-12-20 04:20:00,28.4,24.5,30.25,WSW,244,0.0,2.0,85,0.00,,,0.00,Wunderground v.1.15,2014-12-20 09:20:00,
2014-12-20 04:26:00,28.4,24.5,30.25,WSW,244,0.0,2.0,85,0.00,,,0.00,Wunderground v.1.15,2014-12-20 09:26:00,
2014-12-20 04:32:00,28.4,24.5,30.25,WSW,244,0.0,2.0,85,0.00,,,0.00,Wunderground v.1.15,2014-12-20 09:32:00,
2014-12-20 04:38:00,28.4,24.7,30.25,WSW,244,0.0,2.0,86,0.00,,,0.00,Wunderground v.1.15,2014-12-20 09:38:00,
2014-12-20 04:44:00,28.4,24.7,30.25,WSW,244,0.0,2.0,86,0.00,,,0.00,Wunderground v.1.15,2014-12-20 09:44:00,
2014-12-20 04:50:00,28.4,24.7,30.25,WSW,244,0.0,2.0,86,0.00,,,0.00,Wunderground v.1.15,2014-12-20 09:50:00,
2014-12-20 04:56:00,28.4,24.7,30.24,WSW,244,0.0,2.0,86,0.00,,,0.00,Wunderground v.1.15,2014-12-20 09:56:00,
2014-12-20 05:02:00,28.2,24.6,30.24,WSW,244,0.0,2.0,86,0.00,,,0.00,Wunderground v.1.15,2014-12-20 10:02:00,
2014-12-20 05:08:00,28.2,24.6,30.24,WSW,244,0.0,2.0,86,0.00,,,0.00,Wunderground v.1.15,2014-12-20 10:08:00,
2014-12-20 05:14:00,28.2,24.3,30.24,WSW,244,0.0,2.0,85,0.00,,,0.00,Wunderground v.1.15,2014-12-20 10:14:00,
2014-12-20 05:20:00,28.2,24.6,30.24,WSW,244,0.0,2.0,86,0.00,,,0.00,Wunderground v.1.15,2014-12-20 10:20:00,
2014-12-20 05:26:00,28.1,24.5,30.24,WSW,244,0.0,2.0,86,0.00,,,0.00,Wunderground v.1.15,2014-12-20 10:26:00,
2014-12-20 05:32:00,28.1,24.5,30.24,WSW,244,0.0,0.0,86,0.00,,,0.00,Wunderground v.1.15,2014-12-20 10:32:00,
2014-12-20 05:38:00,28.1,24.5,30.24,WSW,244,0.0,0.0,86,0.00,,,0.00,Wunderground v.1.15,2014-12-20 10:38:00,
2014-12-20 05:44:00,28.1,24.5,30.24,WSW,244,0.0,0.0,86,0.00,,,0.00,Wunderground v.1.15,2014-12-20 10:44:00,
2014-12-20 05:50:00,28.1,24.5,30.24,WSW,244,0.0,0.0,86,0.00,,,0.00,Wunderground v.1.15,2014-12-20 10:50:00,
2014-12-20 05:56:00,28.1,24.5,30.24,WSW,244,0.0,0.0,86,0.00,,,0.00,Wunderground v.1.15,2014-12-20 10:56:00,
2014-12-20 06:02:00,28.1,24.5,30.24,WSW,244,0.0,0.0,86,0.00,,,0.00,Wunderground v.1.15,2014-12-20 11:02:00,
2014-12-20 06:08:00,28.1,24.5,30.24,WSW,244,0.0,0.0,86,0.00,,,0.00,Wunderground v.1.15,2014-12-20 11:08:00,
2014-12-20 06:14:00,28.1,24.5,30.24,WSW,244,0.0,0.0,86,0.00,,,0.00,Wunderground v.1.15,2014-12-20 11:14:00,
2014-12-20 06:20:00,28.1,24.5,30.24,WSW,244,0.0,0.0,86,0.00,,,0.00,Wunderground v.1.15,2014-12-20 11:20:00,
2014-12-20 06:26:00,28.1,24.7,30.24,WSW,244,0.0,0.0,87,0.00,,,0.00,Wunderground v.1.15,2014-12-20 11:26:00,
2014-12-20 06:32:00,28.1,24.5,30.24,WSW,244,0.0,0.0,86,0.00,,,0.00,Wunderground v.1.15,2014-12-20 11:32:00,
2014-12-20 06:38:00,28.1,24.7,30.25,WSW,244,0.0,0.0,87,0.00,,,0.00,Wunderground v.1.15,2014-12-20 11:38:00,
2014-12-20 06:44:00,28.1,24.7,30.25,WSW,244,0.0,0.0,87,0.00,,,0.00,Wunderground v.1.15,2014-12-20 11:44:00,
2014-12-20 06:50:00,28.2,24.8,30.25,WSW,244,0.0,0.0,87,0.00,,,0.00,Wunderground v.1.15,2014-12-20 11:50:00,
2014-12-20 06:56:00,28.2,24.6,30.25,WSW,244,0.0,0.0,86,0.00,,,0.00,Wunderground v.1.15,2014-12-20 11:56:00,
2014-12-20 07:02:00,28.2,24.8,30.25,WSW,244,0.0,0.0,87,0.00,,,0.00,Wunderground v.1.15,2014-12-20 12:02:00,
2014-12-20 07:08:00,28.4,25.0,30.25,WSW,244,0.0,0.0,87,0.00,,,0.00,Wunderground v.1.15,2014-12-20 12:08:00,
2014-12-20 07:14:00,28.4,25.0,30.25,WSW,244,0.0,0.0,87,0.00,,,0.00,Wunderground v.1.15,2014-12-20 12:14:00,
2014-12-20 07:20:00,28.4,25.0,30.25,WSW,244,0.0,0.0,87,0.00,,,0.00,Wunderground v.1.15,2014-12-20 12:20:00,
2014-12-20 07:26:00,28.4,25.0,30.25,WSW,244,0.0,0.0,87,0.00,,,0.00,Wunderground v.1.15,2014-12-20 12:26:00,
2014-12-20 07:32:00,28.4,25.0,30.25,WSW,244,0.0,1.0,87,0.00,,,0.00,Wunderground v.1.15,2014-12-20 12:32:00,
2014-12-20 07:38:00,28.4,25.0,30.25,WSW,244,0.0,1.0,87,0.00,,,0.00,Wunderground v.1.15,2014-12-20 12:38:00,
2014-12-20 07:44:00,28.5,25.1,30.25,WSW,244,0.0,1.0,87,0.00,,,0.00,Wunderground v.1.15,2014-12-20 12:44:00,
2014-12-20 07:50:00,28.5,25.1,30.25,WSW,244,0.0,1.0,87,0.00,,,0.00,Wunderground v.1.15,2014-12-20 12:50:00,
2014-12-20 07:56:00,28.5,25.1,30.26,WSW,244,0.0,1.0,87,0.00,,,0.00,Wunderground v.1.15,2014-12-20 12:56:00,
2014-12-20 08:02:00,28.5,25.1,30.26,WSW,244,0.0,1.0,87,0.00,,,0.00,Wunderground v.1.15,2014-12-20 13:02:00,
2014-12-20 08:08:00,28.5,25.4,30.26,WSW,244,0.0,1.0,88,0.00,,,0.00,Wunderground v.1.15,2014-12-20 13:08:00,
2014-12-20 08:14:00,28.7,25.6,30.26,WSW,244,0.0,1.0,88,0.00,,,0.00,Wunderground v.1.15,2014-12-20 13:14:00,
2014-12-20 08:20:00,28.7,25.6,30.26,WSW,244,0.0,1.0,88,0.00,,,0.00,Wunderground v.1.15,2014-12-20 13:20:00,
2014-12-20 08:26:00,28.5,25.4,30.27,WSW,244,0.0,1.0,88,0.00,,,0.00,Wunderground v.1.15,2014-12-20 13:26:00,
2014-12-20 08:32:00,28.5,25.4,30.27,WSW,244,0.0,2.0,88,0.00,,,0.00,Wunderground v.1.15,2014-12-20 13:32:00,
2014-12-20 08:38:00,28.5,25.4,30.26,WSW,244,0.0,2.0,88,0.00,,,0.00,Wunderground v.1.15,2014-12-20 13:38:00,
2014-12-20 08:44:00,28.5,25.4,30.26,WSW,244,0.0,2.0,88,0.00,,,0.00,Wunderground v.1.15,2014-12-20 13:44:00,
2014-12-20 08:50:00,28.5,25.4,30.26,WSW,244,0.0,2.0,88,0.00,,,0.00,Wunderground v.1.15,2014-12-20 13:50:00,
2014-12-20 08:56:00,28.7,25.6,30.27,WSW,244,0.0,2.0,88,0.00,,,0.00,Wunderground v.1.15,2014-12-20 13:56:00,
2014-12-20 09:02:00,28.7,25.6,30.27,WSW,244,0.0,2.0,88,0.00,,,0.00,Wunderground v.1.15,2014-12-20 14:02:00,
2014-12-20 09:08:00,28.7,25.6,30.27,WSW,243,1.0,2.0,88,0.00,,,0.00,Wunderground v.1.15,2014-12-20 14:08:00,
2014-12-20 09:14:00,28.8,25.7,30.27,WSW,243,0.0,2.0,88,0.00,,,0.00,Wunderground v.1.15,2014-12-20 14:14:00,
2014-12-20 09:20:00,28.8,25.7,30.27,WSW,243,0.0,2.0,88,0.00,,,0.00,Wunderground v.1.15,2014-12-20 14:20:00,
2014-12-20 09:26:00,29.0,25.9,30.27,WSW,243,0.0,2.0,88,0.00,,,0.00,Wunderground v.1.15,2014-12-20 14:26:00,
2014-12-20 09:32:00,29.1,26.0,30.27,WSW,244,0.0,3.0,88,0.00,,,0.00,Wunderground v.1.15,2014-12-20 14:32:00,
2014-12-20 09:38:00,29.1,26.0,30.27,WSW,244,0.0,3.0,88,0.00,,,0.00,Wunderground v.1.15,2014-12-20 14:38:00,
2014-12-20 09:44:00,29.1,26.0,30.27,WSW,244,0.0,3.0,88,0.00,,,0.00,Wunderground v.1.15,2014-12-20 14:44:00,
2014-12-20 09:50:00,29.1,26.0,30.27,WSW,243,0.0,3.0,88,0.00,,,0.00,Wunderground v.1.15,2014-12-20 14:50:00,
2014-12-20 09:56:00,29.3,26.2,30.27,WSW,246,0.0,3.0,88,0.00,,,0.00,Wunderground v.1.15,2014-12-20 14:56:00,
2014-12-20 10:02:00,29.3,26.2,30.27,WSW,246,0.0,3.0,88,0.00,,,0.00,Wunderground v.1.15,2014-12-20 15:02:00,
2014-12-20 10:08:00,29.4,26.3,30.27,WSW,246,0.0,3.0,88,0.00,,,0.00,Wunderground v.1.15,2014-12-20 15:08:00,
2014-12-20 10:14:00,29.4,26.0,30.27,WSW,246,0.0,3.0,87,0.00,,,0.00,Wunderground v.1.15,2014-12-20 15:14:00,
2014-12-20 10:20:00,29.4,26.0,30.27,WSW,246,1.0,3.0,87,0.00,,,0.00,Wunderground v.1.15,2014-12-20 15:20:00,
2014-12-20 10:26:00,29.5,25.8,30.27,WSW,246,0.0,3.0,86,0.00,,,0.00,Wunderground v.1.15,2014-12-20 15:26:00,
2014-12-20 10:32:00,29.7,26.0,30.27,WSW,246,0.0,3.0,86,0.00,,,0.00,Wunderground v.1.15,2014-12-20 15:32:00,
2014-12-20 10:38:00,29.8,25.8,30.28,WSW,256,0.0,3.0,85,0.00,,,0.00,Wunderground v.1.15,2014-12-20 15:38:00,
2014-12-20 10:44:00,30.0,26.0,30.28,WSW,256,0.0,3.0,85,0.00,,,0.00,Wunderground v.1.15,2014-12-20 15:44:00,
2014-12-20 10:50:00,30.1,26.1,30.28,WSW,256,0.0,3.0,85,0.00,,,0.00,Wunderground v.1.15,2014-12-20 15:50:00,
2014-12-20 10:56:00,30.3,26.0,30.27,WSW,256,0.0,3.0,84,0.00,,,0.00,Wunderground v.1.15,2014-12-20 15:56:00,
2014-12-20 11:02:00,30.4,25.9,30.27,WSW,256,0.0,3.0,83,0.00,,,0.00,Wunderground v.1.15,2014-12-20 16:02:00,
2014-12-20 11:08:00,30.6,25.8,30.26,WSW,256,0.0,3.0,82,0.00,,,0.00,Wunderground v.1.15,2014-12-20 16:08:00,
2014-12-20 11:14:00,30.7,25.9,30.26,WSW,256,0.0,3.0,82,0.00,,,0.00,Wunderground v.1.15,2014-12-20 16:14:00,
2014-12-20 11:20:00,30.9,25.8,30.26,WSW,256,0.0,3.0,81,0.00,,,0.00,Wunderground v.1.15,2014-12-20 16:20:00,
2014-12-20 11:26:00,31.0,25.6,30.26,WSW,237,0.0,3.0,80,0.00,,,0.00,Wunderground v.1.15,2014-12-20 16:26:00,
2014-12-20 11:32:00,31.2,25.7,30.26,WSW,237,0.0,3.0,80,0.00,,,0.00,Wunderground v.1.15,2014-12-20 16:32:00,
2014-12-20 11:38:00,31.3,25.8,30.26,WSW,237,0.0,3.0,80,0.00,,,0.00,Wunderground v.1.15,2014-12-20 16:38:00,
2014-12-20 11:44:00,31.3,25.5,30.26,WSW,237,0.0,3.0,79,0.00,,,0.00,Wunderground v.1.15,2014-12-20 16:44:00,
2014-12-20 11:50:00,31.5,25.7,30.26,WSW,237,0.0,3.0,79,0.00,,,0.00,Wunderground v.1.15,2014-12-20 16:50:00,
2014-12-20 11:56:00,31.5,26.0,30.25,WSW,237,0.0,3.0,80,0.00,,,0.00,Wunderground v.1.15,2014-12-20 16:56:00,
2014-12-20 12:02:00,31.6,25.8,30.25,WSW,243,0.0,3.0,79,0.00,,,0.00,Wunderground v.1.15,2014-12-20 17:02:00,
2014-12-20 12:08:00,31.5,25.7,30.25,WSW,243,0.0,3.0,79,0.00,,,0.00,Wunderground v.1.15,2014-12-20 17:08:00,
2014-12-20 12:14:00,31.3,25.2,30.25,WSW,243,0.0,3.0,78,0.00,,,0.00,Wunderground v.1.15,2014-12-20 17:14:00,
2014-12-20 12:20:00,31.3,25.2,30.25,WSW,243,0.0,3.0,78,0.00,,,0.00,Wunderground v.1.15,2014-12-20 17:20:00,
2014-12-20 12:26:00,31.2,25.1,30.25,WSW,243,0.0,3.0,78,0.00,,,0.00,Wunderground v.1.15,2014-12-20 17:26:00,
2014-12-20 12:32:00,31.2,25.1,30.25,WSW,243,0.0,3.0,78,0.00,,,0.00,Wunderground v.1.15,2014-12-20 17:32:00,
2014-12-20 12:38:00,31.2,25.4,30.24,WSW,243,0.0,3.0,79,0.00,,,0.00,Wunderground v.1.15,2014-12-20 17:38:00,
2014-12-20 12:44:00,31.2,25.1,30.24,WSW,243,0.0,3.0,78,0.00,,,0.00,Wunderground v.1.15,2014-12-20 17:44:00,
2014-12-20 12:50:00,31.3,25.5,30.24,WSW,243,0.0,3.0,79,0.00,,,0.00,Wunderground v.1.15,2014-12-20 17:50:00,
2014-12-20 12:56:00,31.3,25.2,30.24,WSW,243,0.0,3.0,78,0.00,,,0.00,Wunderground v.1.15,2014-12-20 17:56:00,
2014-12-20 13:02:00,31.5,25.4,30.24,WSW,243,0.0,3.0,78,0.00,,,0.00,Wunderground v.1.15,2014-12-20 18:02:00,
2014-12-20 13:08:00,31.6,25.5,30.23,WSW,243,0.0,3.0,78,0.00,,,0.00,Wunderground v.1.15,2014-12-20 18:08:00,
2014-12-20 13:14:00,31.9,25.8,30.23,WSW,243,0.0,3.0,78,0.00,,,0.00,Wunderground v.1.15,2014-12-20 18:14:00,
2014-12-20 13:20:00,31.9,24.9,30.23,WSW,243,0.0,3.0,75,0.00,,,0.00,Wunderground v.1.15,2014-12-20 18:20:00,
2014-12-20 13:26:00,32.1,25.1,30.24,WSW,243,0.0,3.0,75,0.00,,,0.00,Wunderground v.1.15,2014-12-20 18:26:00,
2014-12-20 13:32:00,32.1,24.7,30.24,WSW,243,0.0,3.0,74,0.00,,,0.00,Wunderground v.1.15,2014-12-20 18:32:00,
2014-12-20 13:38:00,32.2,24.5,30.23,WSW,243,0.0,3.0,73,0.00,,,0.00,Wunderground v.1.15,2014-12-20 18:38:00,
2014-12-20 13:44:00,32.2,24.5,30.23,WSW,243,0.0,3.0,73,0.00,,,0.00,Wunderground v.1.15,2014-12-20 18:44:00,
2014-12-20 13:50:00,32.2,24.5,30.23,WSW,243,0.0,3.0,73,0.00,,,0.00,Wunderground v.1.15,2014-12-20 18:50:00,
2014-12-20 13:56:00,32.1,23.8,30.23,WSW,243,1.0,3.0,71,0.00,,,0.00,Wunderground v.1.15,2014-12-20 18:56:00,
2014-12-20 14:02:00,31.9,23.6,30.23,WSW,243,1.0,1.0,71,0.00,,,0.00,Wunderground v.1.15,2014-12-20 19:02:00,
2014-12-20 14:08:00,31.9,23.9,30.23,WSW,243,0.0,3.0,72,0.00,,,0.00,Wunderground v.1.15,2014-12-20 19:08:00,
2014-12-20 14:14:00,31.9,23.9,30.23,WSW,243,0.0,3.0,72,0.00,,,0.00,Wunderground v.1.15,2014-12-20 19:14:00,
2014-12-20 14:20:00,31.9,23.9,30.23,WSW,243,0.0,3.0,72,0.00,,,0.00,Wunderground v.1.15,2014-12-20 19:20:00,
2014-12-20 14:26:00,31.9,24.2,30.22,WSW,243,0.0,3.0,73,0.00,,,0.00,Wunderground v.1.15,2014-12-20 19:26:00,
2014-12-20 14:32:00,31.8,24.1,30.22,WSW,243,0.0,5.0,73,0.00,,,0.00,Wunderground v.1.15,2014-12-20 19:32:00,
2014-12-20 14:38:00,31.6,23.9,30.22,WSW,243,0.0,5.0,73,0.00,,,0.00,Wunderground v.1.15,2014-12-20 19:38:00,
2014-12-20 14:44:00,31.6,24.3,30.22,WSW,243,0.0,5.0,74,0.00,,,0.00,Wunderground v.1.15,2014-12-20 19:44:00,
2014-12-20 14:50:00,31.5,23.8,30.22,WSW,243,0.0,5.0,73,0.00,,,0.00,Wunderground v.1.15,2014-12-20 19:50:00,
2014-12-20 14:56:00,31.5,24.2,30.22,WSW,243,0.0,5.0,74,0.00,,,0.00,Wunderground v.1.15,2014-12-20 19:56:00,
2014-12-20 15:02:00,31.5,24.2,30.22,WSW,243,0.0,5.0,74,0.00,,,0.00,Wunderground v.1.15,2014-12-20 20:02:00,
2014-12-20 15:08:00,31.5,24.2,30.21,WSW,243,0.0,5.0,74,0.00,,,0.00,Wunderground v.1.15,2014-12-20 20:08:00,
2014-12-20 15:14:00,31.5,24.5,30.21,WSW,243,0.0,5.0,75,0.00,,,0.00,Wunderground v.1.15,2014-12-20 20:14:00,
2014-12-20 15:20:00,31.5,24.5,30.21,WSW,243,0.0,5.0,75,0.00,,,0.00,Wunderground v.1.15,2014-12-20 20:20:00,
2014-12-20 15:26:00,31.5,24.5,30.22,WSW,243,0.0,5.0,75,0.00,,,0.00,Wunderground v.1.15,2014-12-20 20:26:00,
2014-12-20 15:32:00,31.5,24.2,30.22,WSW,243,0.0,3.0,74,0.00,,,0.00,Wunderground v.1.15,2014-12-20 20:32:00,
2014-12-20 15:38:00,31.6,24.6,30.22,WSW,243,0.0,3.0,75,0.00,,,0.00,Wunderground v.1.15,2014-12-20 20:38:00,
2014-12-20 15:44:00,31.6,24.6,30.22,WSW,243,0.0,3.0,75,0.00,,,0.00,Wunderground v.1.15,2014-12-20 20:44:00,
2014-12-20 15:50:00,31.6,24.3,30.22,WSW,243,0.0,3.0,74,0.00,,,0.00,Wunderground v.1.15,2014-12-20 20:50:00,
2014-12-20 15:56:00,31.8,24.8,30.22,WSW,243,0.0,3.0,75,0.00,,,0.00,Wunderground v.1.15,2014-12-20 20:56:00,
2014-12-20 16:02:00,31.8,24.8,30.22,WSW,243,0.0,3.0,75,0.00,,,0.00,Wunderground v.1.15,2014-12-20 21:02:00,
2014-12-20 16:08:00,31.8,24.5,30.23,WSW,243,0.0,3.0,74,0.00,,,0.00,Wunderground v.1.15,2014-12-20 21:08:00,
2014-12-20 16:14:00,31.8,24.5,30.23,WSW,243,0.0,3.0,74,0.00,,,0.00,Wunderground v.1.15,2014-12-20 21:14:00,
2014-12-20 16:20:00,31.8,24.8,30.23,WSW,243,0.0,3.0,75,0.00,,,0.00,Wunderground v.1.15,2014-12-20 21:20:00,
2014-12-20 16:26:00,31.8,24.8,30.23,WSW,243,0.0,3.0,75,0.00,,,0.00,Wunderground v.1.15,2014-12-20 21:26:00,
2014-12-20 16:32:00,31.6,24.6,30.23,WSW,243,0.0,3.0,75,0.00,,,0.00,Wunderground v.1.15,2014-12-20 21:32:00,
2014-12-20 16:38:00,31.5,24.5,30.23,WSW,243,0.0,3.0,75,0.00,,,0.00,Wunderground v.1.15,2014-12-20 21:38:00,
2014-12-20 16:44:00,31.5,24.5,30.23,WSW,243,0.0,3.0,75,0.00,,,0.00,Wunderground v.1.15,2014-12-20 21:44:00,